Regional Weather Roundup
Issued by NWS

Home | Current Version | Previous Version | Text Only | Print | Product List | Glossary Off
Versions: 1 2 3 4 5 6 7 8 9 10 11 12 13 14 15 16 17 18 19 20 21 22 23 24 25 26 27 28 29 30 31 32 33 34 35 36 37 38 39 40 41 42 43 44 45 46 47 48 49 50

000
ASUS43 KLMK 020510
RWRKY
KENTUCKY REGIONAL WEATHER ROUNDUP
NATIONAL WEATHER SERVICE LOUISVILLE KY
1200 AM EST MON MAR 02 2015

NOTE "FAIR" INDICATES FEW OR NO CLOUDS BELOW 12,000 FEET
WITH NO SIGNIFICANT WEATHER AND/OR OBSTRUCTIONS TO VISIBILITY.

KYZ001>023-026-027-061>063-070>075-020600-
WESTERN AND SOUTH CENTRAL KENTUCKY

CITY           SKY/WX    TMP DP  RH WIND       PRES   REMARKS
PADUCAH        CLOUDY    33  27  78 N14       30.44R WCI  23
HENDERSON      CLOUDY    30  25  80 NW14      30.45R WCI  20
OWENSBORO      CLOUDY    33  29  86 N10       30.43R WCI  25
HOPKINSVILLE   LGT RAIN  34  32  93 NW7       30.40R FOG     WCI  28
BOWLING GREEN  RAIN      35  33  92 NW5       30.38S FOG     WCI  31
GLASGOW        LGT RAIN  36  36 100 NW5       30.36R WCI  32
$$

KYZ024-025-028>034-038-045-046-053-020600-
NORTH CENTRAL KENTUCKY

CITY           SKY/WX    TMP DP  RH WIND       PRES   REMARKS
LOUISVILLE/SDF CLOUDY    34  29  82 NW13      30.38R WCI  25
LOUISVILLE/LOU CLOUDY    34  29  82 NW10      30.38R WCI  26
FORT KNOX      CLOUDY    33  30  90 NW9       30.35R WCI  25
$$

KYZ035>037-039>044-047>052-055>060-089>105-020600-
NORTHEAST KENTUCKY

CITY           SKY/WX    TMP DP  RH WIND       PRES   REMARKS
LEXINGTON      LGT RAIN  33  32  96 W9        30.33R FOG     WCI  25
COVINGTON      CLOUDY    32  28  85 NW13      30.33R WCI  22
FRANKFORT      CLOUDY    34  32  92 NW7       30.32S FOG     WCI  28
$$

KYZ054-064>069-076>088-106>120-020600-
SOUTHEAST KENTUCKY

CITY           SKY/WX    TMP DP  RH WIND       PRES   REMARKS
JACKSON        LGT RAIN  41  39  93 NW6       30.26R VSB 1/2
LONDON         LGT RAIN  46  42  86 SW6       30.26F FOG
SOMERSET       RAIN      41  41 100 N7        30.30S
MIDDLESBORO    FOG       36  36 100 CALM      30.29F VSB 3/4
MONTICELLO     CLOUDY    45  43  93 NW10      30.32R FOG
$$



USA.gov is the U.S. government's official web portal to all federal, state and local government web resources and services.